[[{"header":{"parameterUnit":"m.s-1","parameterCategory":1,"la1":30.2992,"la2":30.254,"lo1":-89.0895,"lo2":-89.0443,"dy":0.0025,"dx":0.0025,"nx":19,"ny":19,"refTime":"2026-03-17T03:00:00:Z","depth":0,"parameterNumber":2,"parameterNumberName":"U-component_of_WINDS"},"data":[0,0,0,-2.3532,-2.3535,-2.3708,-2.3709,-2.3921,-2.3922,0,0,0,0,0,0,0,0,0,0,0,-2.3476,-2.3477,-2.3531,-2.3536,-2.3708,-2.3709,-2.392,-2.3922,0,0,0,0,0,0,0,0,0,0,0,-2.3475,-2.3477,-2.3479,-2.3536,-2.3708,-2.3709,-2.392,-2.3792,0,0,0,0,0,0,0,0,0,0,-2.3626,-2.3571,-2.3477,-2.3479,-2.3537,-2.3708,-2.3709,-2.3787,-2.38,-2.3839,0,-2.3872,0,-2.3901,-2.3936,-2.3937,0,0,0,-2.3539,-2.3559,-2.361,-2.3479,-2.3539,-2.3707,-2.3631,-2.3794,-2.381,-2.3857,-2.3876,-2.3884,-2.3904,-2.3937,-2.3938,-2.415,-2.4151,0,0,-2.3529,-2.3504,-2.3599,-2.362,-2.3594,-2.3625,-2.3636,-2.3804,-2.3822,-2.3876,-2.3889,-2.3908,-2.3939,-2.394,-2.4149,-2.415,0,0,0,-2.35,-2.3497,-2.3544,-2.3611,-2.3643,-2.363,-2.3643,-2.3815,-2.3832,-2.3891,-2.391,-2.394,-2.3942,-2.4149,-2.415,-2.4166,0,0,0,-2.3494,-2.348,-2.354,-2.3527,-2.3639,-2.3731,-2.365,-2.382,-2.384,-2.3909,-2.394,-2.3944,-2.4148,-2.4149,-2.4164,-2.4177,0,0,0,-2.3466,-2.3477,-2.3501,-2.3525,-2.3598,-2.3729,-2.3756,-2.3825,-2.3852,-2.3937,-2.3945,-2.4147,-2.4149,-2.4162,-2.4174,-2.4224,0,0,0,-2.3429,-2.3513,-2.3501,-2.3602,-2.3597,-2.3739,-2.3755,-2.3862,-2.3937,-2.3941,-2.4148,-2.415,-2.4161,-2.4172,-2.4222,-2.4261,-2.4275,0,0,-2.3521,-2.3523,-2.3585,-2.3579,-2.3716,-2.3714,-2.3854,-2.3946,-2.3977,-2.409,-2.4096,-2.4164,-2.4174,-2.4224,-2.4369,-2.438,0,0,0,-2.3606,-2.365,-2.3692,-2.3762,-2.3835,-2.3898,-2.3972,-2.4006,-2.4103,-2.4031,-2.4198,-2.4205,-2.4235,-2.4254,-2.4264,-2.4291,-2.4158,-2.4158,-2.4158,-2.3699,-2.3735,-2.3838,-2.3894,-2.3963,-2.4038,-2.4096,-2.4155,-2.417,-2.4209,-2.4242,-2.4326,-2.4348,-2.4356,-2.4383,-2.4268,-2.4268,-2.4268,-2.4268,-2.3836,-2.3902,-2.3922,-2.4029,-2.4065,-2.4156,-2.4231,-2.4239,-2.4328,-2.4304,-2.4333,-2.4301,-2.4367,-2.4392,-2.427,-2.4269,-2.4269,-2.4269,-2.4269,-2.3899,-2.3937,-2.3978,-2.4083,-2.416,-2.4214,-2.4298,-2.4329,-2.4359,-2.4387,-2.4424,-2.4424,-2.4425,-2.4403,-2.4403,-2.4404,-2.4404,-2.4404,-2.4404,-2.3947,-2.3993,-2.406,-2.4145,-2.4193,-2.4262,-2.4338,-2.4387,-2.4449,-2.4465,-2.4465,-2.4475,-2.4368,-2.4338,-2.4409,-2.4408,-2.4407,-2.4407,-2.4407,-2.4068,-2.4046,-2.4149,-2.4199,-2.43,-2.4373,-2.4413,-2.4509,-2.4554,-2.4594,-2.46,-2.4516,-2.452,-2.4512,-2.4488,-2.4593,-2.4593,-2.4593,-2.4593,-2.4119,-2.4125,-2.4238,-2.4314,-2.4392,-2.4438,-2.4552,-2.4613,-2.4672,-2.4701,-2.4691,-2.4663,-2.4654,-2.4663,-2.4653,-2.463,-2.4769,-2.4769,-2.4769,-2.4195,-2.421,-2.4301,-2.4359,-2.444,-2.4509,-2.4618,-2.4703,-2.4766,-2.4777,-2.4725,-2.4717,-2.4672,-2.4656,-2.4663,-2.4646,-2.4605,0,0]},{"header":{"parameterUnit":"m.s-1","parameterCategory":1,"la1":30.2992,"la2":30.254,"lo1":-89.0895,"lo2":-89.0443,"dy":0.0025,"dx":0.0025,"nx":19,"ny":19,"refTime":"2026-03-17T03:00:00:Z","depth":0,"parameterNumber":3,"parameterNumberName":"V-component_of_WINDS"},"data":[0,0,0,-1.5719,-1.572,-1.5745,-1.5745,-1.5777,-1.5777,0,0,0,0,0,0,0,0,0,0,0,-1.571,-1.571,-1.5719,-1.572,-1.5745,-1.5745,-1.5777,-1.5777,0,0,0,0,0,0,0,0,0,0,0,-1.571,-1.571,-1.571,-1.572,-1.5745,-1.5745,-1.5776,-1.5758,0,0,0,0,0,0,0,0,0,0,-1.5733,-1.5723,-1.571,-1.571,-1.572,-1.5745,-1.5745,-1.5757,-1.5759,-1.5764,0,-1.5768,0,-1.5773,-1.5779,-1.5779,0,0,0,-1.5721,-1.5722,-1.573,-1.571,-1.572,-1.5745,-1.5734,-1.5758,-1.576,-1.5767,-1.5768,-1.5769,-1.5773,-1.5779,-1.5779,-1.5803,-1.5803,0,0,-1.572,-1.5714,-1.5728,-1.5731,-1.5727,-1.5733,-1.5735,-1.576,-1.5761,-1.5768,-1.577,-1.5774,-1.5779,-1.5779,-1.5802,-1.5803,0,0,0,-1.5715,-1.5713,-1.5721,-1.573,-1.5735,-1.5734,-1.5736,-1.576,-1.5763,-1.5771,-1.5774,-1.5779,-1.578,-1.5802,-1.5802,-1.5799,0,0,0,-1.5714,-1.571,-1.572,-1.5717,-1.5734,-1.5747,-1.5736,-1.5761,-1.5764,-1.5774,-1.5779,-1.578,-1.5802,-1.5802,-1.5799,-1.5798,0,0,0,-1.5709,-1.571,-1.5713,-1.5717,-1.5727,-1.5747,-1.5752,-1.5762,-1.5766,-1.5779,-1.578,-1.5802,-1.5802,-1.5799,-1.5798,-1.5802,0,0,0,-1.5702,-1.571,-1.5713,-1.5722,-1.5727,-1.5745,-1.5751,-1.5765,-1.5776,-1.5779,-1.5802,-1.5802,-1.5799,-1.5798,-1.5802,-1.5804,-1.5805,0,0,-1.5709,-1.5711,-1.5717,-1.572,-1.5735,-1.5741,-1.5757,-1.5772,-1.5779,-1.5794,-1.5795,-1.5799,-1.5798,-1.5802,-1.581,-1.581,0,0,0,-1.5717,-1.5721,-1.5727,-1.5736,-1.5747,-1.5757,-1.577,-1.5776,-1.5789,-1.5785,-1.5802,-1.5802,-1.5804,-1.5806,-1.5806,-1.5808,-1.5803,-1.5803,-1.5803,-1.5718,-1.5726,-1.5736,-1.5747,-1.5756,-1.5769,-1.5777,-1.5787,-1.5793,-1.5796,-1.5801,-1.5804,-1.5806,-1.5806,-1.5808,-1.5803,-1.5803,-1.5803,-1.5803,-1.5728,-1.5735,-1.5742,-1.5754,-1.5762,-1.5773,-1.5786,-1.5789,-1.5801,-1.5802,-1.5804,-1.5804,-1.5806,-1.5809,-1.5803,-1.5803,-1.5803,-1.5803,-1.5803,-1.573,-1.5734,-1.574,-1.5754,-1.5764,-1.5774,-1.5785,-1.5792,-1.5799,-1.5802,-1.5807,-1.5807,-1.5808,-1.5804,-1.5804,-1.5804,-1.5804,-1.5804,-1.5804,-1.5728,-1.5735,-1.5743,-1.5755,-1.5761,-1.5771,-1.5784,-1.5791,-1.5801,-1.5805,-1.5805,-1.581,-1.5805,-1.5803,-1.5804,-1.5804,-1.5804,-1.5804,-1.5804,-1.5735,-1.5734,-1.5746,-1.5752,-1.5767,-1.5776,-1.5785,-1.5798,-1.5805,-1.581,-1.5814,-1.5809,-1.5812,-1.5811,-1.581,-1.5813,-1.5813,-1.5813,-1.5813,-1.5736,-1.5737,-1.575,-1.576,-1.5771,-1.578,-1.5793,-1.5803,-1.5814,-1.5819,-1.5819,-1.5818,-1.5818,-1.5821,-1.582,-1.5819,-1.5824,-1.5824,-1.5824,-1.574,-1.5743,-1.5752,-1.5762,-1.5774,-1.5784,-1.5796,-1.5808,-1.582,-1.5825,-1.5822,-1.5822,-1.582,-1.5819,-1.5823,-1.5823,-1.5821,0,0]}]]